| time (UTC) | temp F | wind direction | speed MPH | gust MPH | rain 1hr in | rain 24hr in | rain mn in | humidity % | barometer mb |
| 20260507153228 | 73 | 231 | 9.0 | 13.0 | 0.00 | 0.00 | 0.39 | 96 | 1010.5 |
| 20260507152727 | 73 | 215 | 7.0 | 13.0 | 0.00 | 0.00 | 0.39 | 96 | 1010.5 |
| 20260507152231 | 73 | 212 | 4.0 | 9.0 | 0.00 | 0.00 | 0.38 | 95 | 1010.2 |
| 20260507151728 | 73 | 214 | 7.0 | 11.0 | 0.00 | 0.00 | 0.38 | 95 | 1010.2 |
| 20260507151227 | 73 | 221 | 9.0 | 14.0 | 0.00 | 0.00 | 0.38 | 95 | 1010.2 |
| 20260507150729 | 73 | 173 | 9.0 | 14.0 | 0.00 | 0.00 | 0.38 | 95 | 1009.8 |
| 20260507145728 | 73 | 191 | 11.0 | 16.0 | 0.00 | 0.00 | 0.38 | 95 | 1009.8 |
| 20260507145230 | 73 | 206 | 11.0 | 18.0 | 0.00 | 0.00 | 0.38 | 95 | 1010.2 |
| 20260507144730 | 73 | 212 | 11.0 | 14.0 | 0.00 | 0.00 | 0.38 | 96 | 1009.8 |
| 20260507144229 | 73 | 202 | 7.0 | 13.0 | 0.00 | 0.00 | 0.38 | 96 | 1009.8 |
| 20260507143731 | 72 | 208 | 7.0 | 11.0 | 0.00 | 0.00 | 0.38 | 97 | 1010.2 |
| 20260507143228 | 72 | 208 | 7.0 | 13.0 | 0.00 | 0.00 | 0.38 | 97 | 1010.2 |
| 20260507142727 | 72 | 217 | 9.0 | 13.0 | 0.00 | 0.00 | 0.38 | 98 | 1010.2 |
| 20260507142228 | 72 | 224 | 7.0 | 13.0 | 0.00 | 0.00 | 0.38 | 98 | 1010.2 |
| 20260507141241 | 72 | 231 | 7.0 | 13.0 | 0.00 | 0.00 | 0.38 | 99 | 1010.2 |
| 20260507140728 | 71 | 206 | 9.0 | 16.0 | 0.00 | 0.00 | 0.38 | 99 | 1010.2 |
| 20260507140227 | 71 | 239 | 9.0 | 14.0 | 0.00 | 0.00 | 0.38 | 100 | 1010.2 |
| 20260507135729 | 71 | 221 | 7.0 | 13.0 | 0.00 | 0.00 | 0.38 | 100 | 1009.8 |
| 20260507135228 | 71 | 212 | 4.0 | 9.0 | 0.00 | 0.00 | 0.38 | 100 | 1009.8 |
| 20260507134730 | 71 | 246 | 4.0 | 11.0 | 0.00 | 0.00 | 0.38 | 100 | 1009.5 |
| 20260507134227 | 71 | 214 | 2.0 | 7.0 | 0.00 | 0.00 | 0.38 | 100 | 1009.5 |
| 20260507133728 | 71 | 197 | 2.0 | 7.0 | 0.00 | 0.00 | 0.38 | 100 | 1009.5 |
| 20260507133230 | 70 | 208 | 2.0 | 7.0 | 0.00 | 0.00 | 0.38 | 100 | 1009.5 |
| 20260507132728 | 70 | 204 | 2.0 | 7.0 | 0.00 | 0.00 | 0.38 | 100 | 1009.8 |
| 20260507132235 | 70 | 177 | 2.0 | 7.0 | 0.00 | 0.00 | 0.38 | 100 | 1010.2 |
| 20260507131728 | 69 | 244 | 7.0 | 16.0 | 0.00 | 0.00 | 0.38 | 100 | 1010.2 |
| 20260507131228 | 69 | 215 | 9.0 | 16.0 | 0.00 | 0.00 | 0.38 | 100 | 1010.2 |
| 20260507130730 | 69 | 197 | 9.0 | 18.0 | 0.00 | 0.00 | 0.38 | 100 | 1010.5 |
| 20260507130230 | 69 | 215 | 11.0 | 18.0 | 0.00 | 0.00 | 0.38 | 100 | 1010.5 |
| 20260507125727 | 69 | 201 | 4.0 | 11.0 | 0.00 | 0.00 | 0.38 | 100 | 1010.5 |
| 20260507125229 | 69 | 163 | 11.0 | 18.0 | 0.01 | 0.00 | 0.38 | 100 | 1010.8 |
| 20260507124729 | 69 | 212 | 7.0 | 16.0 | 0.01 | 0.00 | 0.38 | 100 | 1010.8 |
| 20260507124229 | 69 | 204 | 11.0 | 18.0 | 0.01 | 0.00 | 0.38 | 100 | 1011.2 |
| 20260507123733 | 69 | 229 | 11.0 | 16.0 | 0.01 | 0.00 | 0.38 | 100 | 1011.2 |
| 20260507123228 | 69 | 219 | 11.0 | 14.0 | 0.01 | 0.00 | 0.37 | 100 | 1011.2 |
| 20260507122728 | 69 | 211 | 15.0 | 23.0 | 0.01 | 0.00 | 0.37 | 100 | 1011.2 |
| 20260507122227 | 69 | 225 | 13.0 | 22.0 | 0.01 | 0.00 | 0.37 | 100 | 1011.2 |
| 20260507121727 | 69 | 237 | 13.0 | 22.0 | 0.01 | 0.00 | 0.37 | 100 | 1011.2 |
| 20260507121228 | 69 | 214 | 11.0 | 27.0 | 0.01 | 0.00 | 0.37 | 100 | 1011.2 |
| 20260507120727 | 69 | 205 | 11.0 | 23.0 | 0.01 | 0.00 | 0.37 | 100 | 1011.5 |
| 20260507120229 | 69 | 229 | 9.0 | 16.0 | 0.02 | 0.00 | 0.37 | 100 | 1011.5 |
| 20260507115728 | 69 | 204 | 4.0 | 7.0 | 0.02 | 0.00 | 0.37 | 100 | 1011.9 |
| 20260507115227 | 69 | 200 | 4.0 | 11.0 | 0.01 | 0.00 | 0.36 | 100 | 1012.2 |
| 20260507114728 | 69 | 237 | 7.0 | 9.0 | 0.02 | 0.00 | 0.35 | 100 | 1012.5 |
| 20260507114228 | 69 | 195 | 7.0 | 14.0 | 0.02 | 0.00 | 0.35 | 100 | 1012.5 |
| 20260507113729 | 69 | 211 | 7.0 | 11.0 | 0.01 | 0.00 | 0.34 | 100 | 1012.5 |
| 20260507113228 | 69 | 222 | 4.0 | 9.0 | 0.03 | 0.00 | 0.33 | 100 | 1012.5 |
| 20260507112728 | 69 | 208 | 7.0 | 9.0 | 0.03 | 0.00 | 0.32 | 100 | 1012.5 |
| 20260507112230 | 69 | 220 | 7.0 | 11.0 | 0.04 | 0.00 | 0.31 | 100 | 1012.5 |
| 20260507111731 | 69 | 214 | 4.0 | 7.0 | 0.04 | 0.00 | 0.31 | 100 | 1012.5 |
| 20260507111229 | 69 | 210 | 4.0 | 5.0 | 0.04 | 0.00 | 0.30 | 100 | 1012.5 |
| 20260507110728 | 69 | 229 | 4.0 | 5.0 | 0.05 | 0.00 | 0.30 | 100 | 1012.5 |
| 20260507110228 | 69 | 235 | 7.0 | 11.0 | 0.05 | 0.00 | 0.29 | 100 | 1012.5 |
| 20260507105728 | 69 | 242 | 4.0 | 9.0 | 0.05 | 0.00 | 0.28 | 100 | 1012.5 |
| 20260507105228 | 69 | 230 | 7.0 | 11.0 | 0.05 | 0.00 | 0.28 | 100 | 1012.5 |
| 20260507104727 | 69 | 242 | 4.0 | 9.0 | 0.05 | 0.00 | 0.28 | 100 | 1012.5 |
| 20260507104228 | 69 | 199 | 4.0 | 11.0 | 0.04 | 0.00 | 0.27 | 100 | 1012.5 |
| 20260507103729 | 69 | 212 | 4.0 | 9.0 | 0.04 | 0.00 | 0.26 | 100 | 1012.2 |
| 20260507103227 | 69 | 201 | 4.0 | 11.0 | 0.03 | 0.00 | 0.23 | 100 | 1012.5 |
| 20260507102729 | 69 | 218 | 7.0 | 7.0 | 0.02 | 0.00 | 0.18 | 100 | 1012.2 |
| 20260507102229 | 69 | 250 | 4.0 | 9.0 | 0.01 | 0.00 | 0.12 | 100 | 1012.2 |
| 20260507101729 | 69 | 231 | 7.0 | 9.0 | 0.01 | 0.00 | 0.11 | 100 | 1011.9 |
| 20260507101227 | 69 | 221 | 0.0 | 7.0 | 0.01 | 0.00 | 0.09 | 100 | 1011.9 |
| 20260507100728 | 69 | 228 | 0.0 | 4.0 | 0.00 | 0.00 | 0.06 | 100 | 1011.9 |
| 20260507100228 | 69 | 223 | 2.0 | 4.0 | 0.00 | 0.00 | 0.05 | 100 | 1011.9 |
| 20260507095727 | 68 | 221 | 0.0 | 4.0 | 0.00 | 0.00 | 0.04 | 100 | 1011.9 |
| 20260507095231 | 68 | 222 | 0.0 | 2.0 | 0.00 | 0.00 | 0.04 | 100 | 1011.9 |
| 20260507094728 | 68 | 228 | 0.0 | 0.0 | 0.00 | 0.00 | 0.04 | 100 | 1011.9 |
| 20260507094228 | 68 | 227 | 0.0 | 2.0 | 0.00 | 0.00 | 0.04 | 100 | 1011.9 |
| 20260507093728 | 68 | 227 | 0.0 | 2.0 | 0.00 | 0.00 | 0.04 | 100 | 1011.9 |
| 20260507093234 | 68 | 230 | 0.0 | 0.0 | 0.00 | 0.00 | 0.04 | 100 | 1011.5 |
| 20260507092728 | 68 | 230 | 0.0 | 0.0 | 0.00 | 0.00 | 0.04 | 100 | 1011.5 |
| 20260507092228 | 68 | 229 | 0.0 | 0.0 | 0.00 | 0.00 | 0.04 | 100 | 1011.9 |
| 20260507091728 | 68 | 230 | 0.0 | 0.0 | 0.00 | 0.00 | 0.03 | 99 | 1011.9 |
| 20260507091228 | 68 | 228 | 0.0 | 0.0 | 0.00 | 0.00 | 0.03 | 99 | 1011.9 |
| 20260507090728 | 68 | 235 | 0.0 | 0.0 | 0.00 | 0.00 | 0.03 | 99 | 1012.2 |
| 20260507090227 | 68 | 236 | 0.0 | 0.0 | 0.00 | 0.00 | 0.03 | 99 | 1011.9 |
| 20260507085728 | 68 | 235 | 0.0 | 2.0 | 0.00 | 0.00 | 0.03 | 99 | 1011.9 |
| 20260507085228 | 68 | 235 | 0.0 | 4.0 | 0.00 | 0.00 | 0.03 | 99 | 1011.9 |
| 20260507084728 | 68 | 226 | 0.0 | 4.0 | 0.00 | 0.00 | 0.03 | 99 | 1011.9 |
| 20260507084227 | 68 | 262 | 0.0 | 2.0 | 0.00 | 0.00 | 0.03 | 99 | 1011.5 |
| 20260507083728 | 68 | 248 | 0.0 | 0.0 | 0.00 | 0.00 | 0.03 | 99 | 1011.9 |
| 20260507083228 | 68 | 248 | 0.0 | 2.0 | 0.00 | 0.00 | 0.03 | 99 | 1011.5 |
| 20260507082727 | 68 | 255 | 0.0 | 2.0 | 0.00 | 0.00 | 0.03 | 99 | 1010.8 |
| 20260507082228 | 68 | 217 | 0.0 | 0.0 | 0.00 | 0.00 | 0.03 | 99 | 1010.8 |
| 20260507081727 | 68 | 217 | 0.0 | 0.0 | 0.00 | 0.00 | 0.03 | 99 | 1011.2 |
| 20260507081228 | 68 | 216 | 0.0 | 0.0 | 0.00 | 0.00 | 0.03 | 99 | 1011.2 |
| 20260507080727 | 68 | 215 | 0.0 | 0.0 | 0.00 | 0.00 | 0.03 | 99 | 1011.2 |
| 20260507080227 | 68 | 214 | 0.0 | 0.0 | 0.00 | 0.00 | 0.03 | 99 | 1011.5 |
| 20260507075727 | 68 | 274 | 0.0 | 2.0 | 0.00 | 0.00 | 0.03 | 98 | 1011.5 |
| 20260507075227 | 68 | 141 | 0.0 | 2.0 | 0.00 | 0.00 | 0.03 | 98 | 1011.5 |
| 20260507074727 | 68 | 211 | 0.0 | 0.0 | 0.00 | 0.00 | 0.03 | 98 | 1011.5 |
| 20260507074229 | 68 | 221 | 0.0 | 0.0 | 0.00 | 0.00 | 0.03 | 98 | 1011.9 |
| 20260507073729 | 68 | 229 | 0.0 | 0.0 | 0.00 | 0.00 | 0.03 | 98 | 1011.9 |
| 20260507073227 | 68 | 232 | 0.0 | 0.0 | 0.00 | 0.00 | 0.03 | 98 | 1012.2 |
| 20260507072728 | 68 | 232 | 0.0 | 0.0 | 0.00 | 0.00 | 0.03 | 98 | 1012.2 |
| 20260507072227 | 68 | 212 | 0.0 | 0.0 | 0.00 | 0.00 | 0.03 | 97 | 1012.2 |
| 20260507071729 | 69 | 211 | 0.0 | 0.0 | 0.00 | 0.00 | 0.03 | 97 | 1012.2 |
| 20260507071228 | 68 | 252 | 0.0 | 2.0 | 0.00 | 0.00 | 0.03 | 97 | 1012.2 |
| 20260507070729 | 69 | 205 | 0.0 | 2.0 | 0.00 | 0.00 | 0.03 | 97 | 1012.5 |
| 20260507070229 | 69 | 327 | 0.0 | 2.0 | 0.00 | 0.00 | 0.03 | 97 | 1012.5 |
| 20260507065727 | 69 | 163 | 0.0 | 2.0 | 0.00 | 0.00 | 0.03 | 97 | 1012.5 |
| 20260507065230 | 68 | 206 | 0.0 | 0.0 | 0.00 | 0.00 | 0.03 | 96 | 1012.5 |
| 20260507064728 | 68 | 200 | 0.0 | 2.0 | 0.00 | 0.00 | 0.03 | 96 | 1012.5 |
| 20260507064227 | 69 | 189 | 0.0 | 0.0 | 0.01 | 0.00 | 0.03 | 96 | 1012.5 |
| 20260507063729 | 69 | 184 | 0.0 | 2.0 | 0.01 | 0.00 | 0.03 | 95 | 1012.5 |
| 20260507063228 | 69 | 185 | 0.0 | 2.0 | 0.01 | 0.00 | 0.03 | 95 | 1012.5 |
| 20260507062730 | 69 | 190 | 0.0 | 2.0 | 0.00 | 0.00 | 0.03 | 95 | 1012.9 |
| 20260507062230 | 69 | 196 | 0.0 | 2.0 | 0.00 | 0.00 | 0.02 | 94 | 1012.9 |
| 20260507061728 | 69 | 193 | 0.0 | 4.0 | 0.00 | 0.00 | 0.02 | 94 | 1013.2 |
| 20260507061228 | 69 | 200 | 2.0 | 4.0 | 0.00 | 0.00 | 0.02 | 93 | 1013.5 |
| 20260507060729 | 69 | 234 | 2.0 | 5.0 | 0.00 | 0.00 | 0.02 | 93 | 1013.2 |
| 20260507060228 | 70 | 243 | 0.0 | 4.0 | 0.00 | 0.00 | 0.02 | 92 | 1013.2 |
| 20260507055728 | 70 | 213 | 7.0 | 11.0 | 0.00 | 0.00 | 0.02 | 92 | 1013.2 |
| 20260507055227 | 70 | 241 | 7.0 | 9.0 | 0.00 | 0.00 | 0.02 | 90 | 1013.2 |
| 20260507054728 | 70 | 225 | 4.0 | 9.0 | 0.00 | 0.00 | 0.01 | 88 | 1013.5 |
| 20260507054228 | 70 | 207 | 4.0 | 9.0 | 0.00 | 0.00 | 0.00 | 87 | 1013.2 |
| 20260507053728 | 70 | 254 | 4.0 | 7.0 | 0.00 | 0.00 | 0.00 | 87 | 1012.9 |
| 20260507053229 | 70 | 203 | 0.0 | 0.0 | 0.00 | 0.00 | 0.00 | 86 | 1012.9 |
| 20260507052727 | 70 | 220 | 2.0 | 5.0 | 0.00 | 0.00 | 0.00 | 86 | 1012.9 |
| 20260507052227 | 69 | 220 | 2.0 | 7.0 | 0.00 | 0.00 | 0.00 | 86 | 1012.9 |
| 20260507051728 | 69 | 204 | 4.0 | 5.0 | 0.00 | 0.00 | 0.00 | 86 | 1012.9 |
| 20260507051231 | 69 | 234 | 0.0 | 5.0 | 0.00 | 0.00 | 0.00 | 86 | 1012.9 |
| 20260507050727 | 69 | 209 | 2.0 | 5.0 | 0.00 | 0.00 | 0.00 | 86 | 1012.9 |
| 20260507050227 | 69 | 218 | 0.0 | 4.0 | 0.00 | 0.00 | 0.00 | 85 | 1012.9 |
| 20260507045727 | 69 | 220 | 0.0 | 2.0 | 0.00 | 0.00 | 0.00 | 85 | 1012.9 |
| 20260507045227 | 69 | 218 | 0.0 | 4.0 | 0.00 | 0.00 | 0.00 | 85 | 1012.9 |
| 20260507044727 | 69 | 218 | 0.0 | 2.0 | 0.00 | 0.00 | 0.00 | 84 | 1012.9 |
| 20260507043738 | 70 | 218 | 0.0 | 4.0 | 0.00 | 0.00 | 0.00 | 84 | 1012.9 |
| 20260507043228 | 70 | 209 | 2.0 | 5.0 | 0.00 | 0.00 | 0.00 | 84 | 1012.9 |
| 20260507042728 | 70 | 223 | 0.0 | 5.0 | 0.00 | 0.00 | 0.00 | 83 | 1012.9 |
| 20260507042229 | 70 | 212 | 0.0 | 4.0 | 0.00 | 0.00 | 0.00 | 83 | 1013.2 |
| 20260507041727 | 70 | 213 | 4.0 | 5.0 | 0.00 | 0.00 | 0.00 | 83 | 1013.2 |
| 20260507041229 | 70 | 213 | 2.0 | 5.0 | 0.00 | 0.00 | 0.00 | 83 | 1012.9 |
| 20260507040728 | 70 | 221 | 2.0 | 5.0 | 0.00 | 0.00 | 0.00 | 83 | 1013.2 |
| 20260507040229 | 70 | 220 | 0.0 | 4.0 | 0.00 | 0.00 | 0.00 | 82 | 1012.9 |
| 20260507035729 | 70 | 214 | 0.0 | 0.0 | 0.00 | 0.00 | 0.00 | 82 | 1012.9 |
| 20260507035227 | 70 | 212 | 2.0 | 7.0 | 0.00 | 0.00 | 0.00 | 82 | 1012.9 |
| 20260507034728 | 70 | 208 | 2.0 | 7.0 | 0.00 | 0.00 | 0.00 | 82 | 1012.9 |
| 20260507034229 | 70 | 207 | 4.0 | 11.0 | 0.00 | 0.00 | 0.00 | 82 | 1012.9 |
| 20260507033728 | 70 | 213 | 2.0 | 7.0 | 0.00 | 0.00 | 0.00 | 82 | 1013.2 |
| 20260507033229 | 70 | 211 | 2.0 | 7.0 | 0.00 | 0.00 | 0.00 | 82 | 1013.2 |
| 20260507032727 | 70 | 212 | 2.0 | 7.0 | 0.00 | 0.00 | 0.00 | 82 | 1013.2 |
| 20260507032227 | 70 | 214 | 0.0 | 7.0 | 0.00 | 0.00 | 0.00 | 82 | 1013.2 |
| 20260507031729 | 70 | 215 | 2.0 | 9.0 | 0.00 | 0.00 | 0.00 | 82 | 1013.2 |
| 20260507031227 | 70 | 228 | 2.0 | 7.0 | 0.00 | 0.00 | 0.00 | 82 | 1013.2 |
| 20260507030729 | 70 | 221 | 2.0 | 7.0 | 0.00 | 0.00 | 0.00 | 82 | 1013.2 |
| 20260507030228 | 70 | 213 | 2.0 | 5.0 | 0.00 | 0.00 | 0.00 | 82 | 1013.5 |
| 20260507025727 | 70 | 229 | 4.0 | 7.0 | 0.00 | 0.00 | 0.00 | 82 | 1013.5 |
| 20260507025229 | 70 | 212 | 4.0 | 11.0 | 0.00 | 0.00 | 0.00 | 82 | 1013.2 |
| 20260507024727 | 70 | 240 | 4.0 | 7.0 | 0.00 | 0.00 | 0.00 | 83 | 1013.2 |
| 20260507024229 | 70 | 206 | 4.0 | 11.0 | 0.00 | 0.00 | 0.00 | 83 | 1013.2 |
| 20260507023727 | 70 | 207 | 2.0 | 11.0 | 0.00 | 0.00 | 0.00 | 83 | 1013.5 |
| 20260507023230 | 70 | 196 | 2.0 | 5.0 | 0.00 | 0.00 | 0.00 | 83 | 1013.5 |
| 20260507022729 | 70 | 213 | 4.0 | 7.0 | 0.00 | 0.00 | 0.00 | 83 | 1013.5 |
| 20260507022227 | 70 | 231 | 4.0 | 11.0 | 0.00 | 0.00 | 0.00 | 83 | 1013.2 |
| 20260507021228 | 71 | 231 | 2.0 | 5.0 | 0.00 | 0.00 | 0.00 | 83 | 1013.2 |
| 20260507020730 | 71 | 206 | 2.0 | 5.0 | 0.00 | 0.00 | 0.00 | 83 | 1013.2 |
| 20260507020229 | 71 | 210 | 4.0 | 11.0 | 0.00 | 0.00 | 0.00 | 83 | 1013.2 |
| 20260507015729 | 71 | 216 | 7.0 | 14.0 | 0.00 | 0.00 | 0.00 | 83 | 1013.2 |
| 20260507015227 | 71 | 212 | 4.0 | 13.0 | 0.00 | 0.00 | 0.00 | 83 | 1013.2 |
| 20260507014728 | 71 | 213 | 2.0 | 5.0 | 0.00 | 0.00 | 0.00 | 83 | 1013.2 |
| 20260507014230 | 71 | 201 | 2.0 | 5.0 | 0.00 | 0.00 | 0.00 | 83 | 1013.5 |
| 20260507013731 | 71 | 209 | 4.0 | 9.0 | 0.00 | 0.00 | 0.00 | 83 | 1013.5 |
| 20260507013229 | 71 | 203 | 9.0 | 11.0 | 0.00 | 0.00 | 0.00 | 83 | 1013.5 |
| 20260507012730 | 71 | 208 | 4.0 | 11.0 | 0.00 | 0.00 | 0.00 | 83 | 1013.5 |
| 20260507012230 | 71 | 201 | 7.0 | 13.0 | 0.00 | 0.00 | 0.00 | 83 | 1013.2 |
| 20260507011728 | 72 | 203 | 2.0 | 9.0 | 0.00 | 0.00 | 0.00 | 83 | 1013.2 |
| 20260507011227 | 72 | 195 | 7.0 | 11.0 | 0.00 | 0.00 | 0.00 | 83 | 1013.2 |
| 20260507010728 | 72 | 216 | 4.0 | 13.0 | 0.00 | 0.00 | 0.00 | 83 | 1013.2 |
| 20260507010229 | 72 | 206 | 2.0 | 11.0 | 0.00 | 0.00 | 0.00 | 83 | 1013.2 |
| 20260507005728 | 72 | 209 | 0.0 | 4.0 | 0.00 | 0.00 | 0.00 | 83 | 1013.2 |
| 20260507005228 | 72 | 178 | 7.0 | 11.0 | 0.00 | 0.00 | 0.00 | 82 | 1012.9 |
| 20260507004730 | 72 | 191 | 2.0 | 4.0 | 0.00 | 0.00 | 0.00 | 82 | 1012.9 |
| 20260507004230 | 73 | 223 | 2.0 | 7.0 | 0.00 | 0.00 | 0.00 | 81 | 1012.9 |
| 20260507003728 | 73 | 190 | 4.0 | 11.0 | 0.00 | 0.00 | 0.00 | 81 | 1012.9 |
| 20260507003230 | 73 | 213 | 2.0 | 7.0 | 0.00 | 0.00 | 0.00 | 80 | 1012.9 |
| 20260507002730 | 73 | 206 | 4.0 | 13.0 | 0.00 | 0.00 | 0.00 | 79 | 1012.9 |
| 20260507002230 | 74 | 225 | 2.0 | 13.0 | 0.00 | 0.00 | 0.00 | 79 | 1012.9 |
| 20260507001228 | 74 | 220 | 2.0 | 5.0 | 0.00 | 0.00 | 0.00 | 78 | 1012.9 |
| 20260507000728 | 74 | 179 | 2.0 | 11.0 | 0.00 | 0.00 | 0.00 | 77 | 1012.9 |
| 20260506235730 | 75 | 194 | 2.0 | 7.0 | 0.00 | 0.00 | 0.00 | 75 | 1012.9 |
| 20260506235228 | 76 | 158 | 4.0 | 13.0 | 0.00 | 0.00 | 0.00 | 75 | 1012.5 |
| 20260506234229 | 76 | 217 | 4.0 | 11.0 | 0.00 | 0.00 | 0.00 | 73 | 1012.5 |
| 20260506233730 | 76 | 202 | 2.0 | 5.0 | 0.00 | 0.00 | 0.00 | 72 | 1012.5 |
| 20260506233231 | 77 | 185 | 4.0 | 11.0 | 0.00 | 0.00 | 0.00 | 71 | 1012.5 |
| 20260506232727 | 77 | 203 | 2.0 | 7.0 | 0.00 | 0.00 | 0.00 | 71 | 1012.5 |
| 20260506232227 | 77 | 199 | 7.0 | 16.0 | 0.00 | 0.00 | 0.00 | 70 | 1012.5 |
| 20260506231730 | 77 | 232 | 7.0 | 16.0 | 0.00 | 0.00 | 0.00 | 69 | 1012.5 |
| 20260506231227 | 78 | 206 | 7.0 | 16.0 | 0.00 | 0.00 | 0.00 | 69 | 1012.5 |
| 20260506230727 | 78 | 220 | 7.0 | 18.0 | 0.00 | 0.00 | 0.00 | 68 | 1012.5 |
| 20260506230230 | 78 | 190 | 9.0 | 18.0 | 0.00 | 0.00 | 0.00 | 68 | 1012.5 |
| 20260506225729 | 78 | 210 | 4.0 | 11.0 | 0.00 | 0.00 | 0.00 | 68 | 1012.5 |
| 20260506225229 | 79 | 205 | 7.0 | 13.0 | 0.00 | 0.00 | 0.00 | 67 | 1012.5 |
| 20260506224728 | 79 | 210 | 7.0 | 16.0 | 0.00 | 0.00 | 0.00 | 67 | 1012.5 |
| 20260506224228 | 79 | 174 | 9.0 | 20.0 | 0.00 | 0.00 | 0.00 | 67 | 1012.9 |
| 20260506223730 | 78 | 210 | 18.0 | 23.0 | 0.00 | 0.00 | 0.00 | 68 | 1012.9 |
| 20260506223230 | 79 | 205 | 11.0 | 16.0 | 0.00 | 0.00 | 0.00 | 66 | 1012.9 |
| 20260506222728 | 79 | 196 | 4.0 | 11.0 | 0.00 | 0.00 | 0.00 | 67 | 1012.5 |
| 20260506222228 | 79 | 233 | 7.0 | 16.0 | 0.00 | 0.00 | 0.00 | 66 | 1012.5 |
| 20260506221729 | 79 | 218 | 4.0 | 13.0 | 0.00 | 0.00 | 0.00 | 65 | 1012.5 |
| 20260506221227 | 79 | 199 | 7.0 | 14.0 | 0.00 | 0.00 | 0.00 | 65 | 1012.5 |
| 20260506220727 | 79 | 206 | 9.0 | 16.0 | 0.00 | 0.00 | 0.00 | 66 | 1012.9 |
| 20260506220227 | 78 | 224 | 11.0 | 18.0 | 0.00 | 0.00 | 0.00 | 66 | 1012.9 |
| 20260506215729 | 78 | 177 | 9.0 | 18.0 | 0.00 | 0.00 | 0.00 | 65 | 1012.5 |
| 20260506215228 | 78 | 191 | 7.0 | 16.0 | 0.00 | 0.00 | 0.00 | 65 | 1012.5 |
| 20260506214727 | 78 | 160 | 7.0 | 13.0 | 0.00 | 0.00 | 0.00 | 64 | 1012.5 |
| 20260506214229 | 79 | 186 | 4.0 | 14.0 | 0.00 | 0.00 | 0.00 | 63 | 1012.2 |
| 20260506213730 | 79 | 213 | 7.0 | 16.0 | 0.00 | 0.00 | 0.00 | 62 | 1012.2 |
| 20260506213227 | 80 | 202 | 4.0 | 14.0 | 0.00 | 0.00 | 0.00 | 61 | 1012.2 |
| 20260506212727 | 80 | 185 | 2.0 | 4.0 | 0.00 | 0.00 | 0.00 | 62 | 1012.5 |
| 20260506212228 | 80 | 197 | 7.0 | 14.0 | 0.00 | 0.00 | 0.00 | 60 | 1012.5 |
| 20260506211727 | 80 | 174 | 7.0 | 14.0 | 0.00 | 0.00 | 0.00 | 61 | 1012.2 |
| 20260506211227 | 81 | 222 | 4.0 | 11.0 | 0.00 | 0.00 | 0.00 | 60 | 1012.5 |
| 20260506210727 | 81 | 217 | 4.0 | 11.0 | 0.00 | 0.00 | 0.00 | 59 | 1012.2 |
| 20260506210229 | 81 | 203 | 4.0 | 7.0 | 0.00 | 0.00 | 0.00 | 59 | 1011.5 |
| 20260506205729 | 82 | 187 | 2.0 | 7.0 | 0.00 | 0.00 | 0.00 | 58 | 1011.9 |
| 20260506205229 | 83 | 181 | 9.0 | 18.0 | 0.00 | 0.00 | 0.00 | 57 | 1013.2 |
| 20260506204729 | 83 | 209 | 9.0 | 18.0 | 0.00 | 0.00 | 0.00 | 55 | 1013.5 |
| 20260506204230 | 83 | 235 | 18.0 | 22.0 | 0.00 | 0.00 | 0.00 | 53 | 1013.5 |
| 20260506203729 | 83 | 213 | 13.0 | 20.0 | 0.00 | 0.00 | 0.00 | 52 | 1013.2 |
| 20260506203228 | 84 | 222 | 13.0 | 18.0 | 0.00 | 0.00 | 0.00 | 55 | 1013.2 |
| 20260506202727 | 84 | 218 | 11.0 | 20.0 | 0.00 | 0.00 | 0.00 | 57 | 1013.2 |
| 20260506202228 | 84 | 252 | 13.0 | 18.0 | 0.00 | 0.00 | 0.00 | 56 | 1013.2 |
| 20260506201730 | 85 | 215 | 13.0 | 25.0 | 0.00 | 0.00 | 0.00 | 53 | 1013.2 |
| 20260506201229 | 85 | 205 | 7.0 | 14.0 | 0.00 | 0.00 | 0.00 | 58 | 1013.2 |
| 20260506200727 | 85 | 255 | 7.0 | 14.0 | 0.00 | 0.00 | 0.00 | 57 | 1013.2 |
| 20260506200228 | 84 | 252 | 9.0 | 14.0 | 0.00 | 0.00 | 0.00 | 57 | 1013.2 |
| 20260506195729 | 86 | 271 | 13.0 | 16.0 | 0.00 | 0.00 | 0.00 | 55 | 1013.2 |
| 20260506195229 | 86 | 237 | 15.0 | 20.0 | 0.00 | 0.00 | 0.00 | 52 | 1013.5 |
| 20260506194727 | 85 | 224 | 11.0 | 23.0 | 0.00 | 0.00 | 0.00 | 53 | 1013.5 |
| 20260506194229 | 85 | 137 | 11.0 | 20.0 | 0.00 | 0.00 | 0.00 | 57 | 1013.5 |
| 20260506193727 | 85 | 274 | 2.0 | 5.0 | 0.00 | 0.00 | 0.00 | 58 | 1013.5 |
| 20260506193230 | 85 | 227 | 11.0 | 18.0 | 0.00 | 0.00 | 0.00 | 61 | 1013.5 |
| 20260506192727 | 84 | 214 | 4.0 | 14.0 | 0.00 | 0.00 | 0.00 | 61 | 1013.5 |
| 20260506192229 | 83 | 170 | 4.0 | 14.0 | 0.00 | 0.00 | 0.00 | 62 | 1013.5 |
| 20260506191729 | 84 | 112 | 7.0 | 29.0 | 0.00 | 0.00 | 0.00 | 61 | 1013.9 |
| 20260506191227 | 84 | 185 | 2.0 | 11.0 | 0.00 | 0.00 | 0.00 | 63 | 1014.2 |
| 20260506190727 | 83 | 225 | 13.0 | 18.0 | 0.00 | 0.00 | 0.00 | 62 | 1014.2 |
| 20260506190229 | 82 | 194 | 11.0 | 25.0 | 0.00 | 0.00 | 0.00 | 64 | 1014.2 |
| 20260506185731 | 82 | 199 | 13.0 | 22.0 | 0.00 | 0.00 | 0.00 | 62 | 1014.2 |
| 20260506185228 | 83 | 199 | 11.0 | 20.0 | 0.00 | 0.00 | 0.00 | 62 | 1014.2 |
| 20260506184728 | 84 | 169 | 7.0 | 14.0 | 0.00 | 0.00 | 0.00 | 62 | 1014.2 |
| 20260506184228 | 83 | 228 | 11.0 | 16.0 | 0.00 | 0.00 | 0.00 | 64 | 1014.2 |
| 20260506183727 | 83 | 246 | 9.0 | 25.0 | 0.00 | 0.00 | 0.00 | 65 | 1014.6 |
| 20260506183228 | 83 | 250 | 13.0 | 25.0 | 0.00 | 0.00 | 0.00 | 65 | 1014.6 |
| 20260506182728 | 83 | 194 | 9.0 | 20.0 | 0.00 | 0.00 | 0.00 | 64 | 1014.6 |
| 20260506182230 | 83 | 240 | 11.0 | 25.0 | 0.00 | 0.00 | 0.00 | 65 | 1014.6 |
| 20260506181727 | 83 | 218 | 11.0 | 18.0 | 0.00 | 0.00 | 0.00 | 65 | 1014.6 |
| 20260506181227 | 81 | 239 | 11.0 | 16.0 | 0.00 | 0.00 | 0.00 | 66 | 1014.6 |
| 20260506180727 | 82 | 216 | 11.0 | 22.0 | 0.00 | 0.00 | 0.00 | 67 | 1014.9 |
| 20260506180230 | 81 | 221 | 11.0 | 20.0 | 0.00 | 0.00 | 0.00 | 67 | 1014.6 |
| 20260506175729 | 81 | 224 | 7.0 | 14.0 | 0.00 | 0.00 | 0.00 | 66 | 1014.6 |
| 20260506175229 | 82 | 241 | 4.0 | 14.0 | 0.00 | 0.00 | 0.00 | 67 | 1014.6 |
| 20260506174729 | 83 | 216 | 9.0 | 25.0 | 0.00 | 0.00 | 0.00 | 63 | 1014.2 |
| 20260506174229 | 83 | 241 | 15.0 | 23.0 | 0.00 | 0.00 | 0.00 | 57 | 1014.6 |
| 20260506173230 | 84 | 221 | 13.0 | 18.0 | 0.00 | 0.00 | 0.00 | 58 | 1014.6 |
| 20260506172729 | 84 | 222 | 13.0 | 27.0 | 0.00 | 0.00 | 0.00 | 57 | 1014.6 |
| 20260506172230 | 84 | 197 | 18.0 | 31.0 | 0.00 | 0.00 | 0.00 | 58 | 1014.9 |
| 20260506171727 | 84 | 266 | 13.0 | 25.0 | 0.00 | 0.00 | 0.00 | 59 | 1014.9 |
| 20260506171229 | 84 | 221 | 15.0 | 22.0 | 0.00 | 0.00 | 0.00 | 57 | 1015.2 |
| 20260506170727 | 83 | 180 | 18.0 | 27.0 | 0.00 | 0.00 | 0.00 | 58 | 1015.2 |
| 20260506170230 | 83 | 209 | 13.0 | 22.0 | 0.00 | 0.00 | 0.00 | 59 | 1015.2 |
| 20260506165727 | 83 | 229 | 11.0 | 20.0 | 0.00 | 0.00 | 0.00 | 59 | 1015.2 |
| 20260506164730 | 82 | 225 | 20.0 | 27.0 | 0.00 | 0.00 | 0.00 | 59 | 1015.6 |
| 20260506164227 | 82 | 233 | 13.0 | 23.0 | 0.00 | 0.00 | 0.00 | 61 | 1015.6 |
| 20260506163727 | 81 | 229 | 15.0 | 23.0 | 0.00 | 0.00 | 0.00 | 61 | 1015.6 |
| 20260506163230 | 82 | 224 | 15.0 | 25.0 | 0.00 | 0.00 | 0.00 | 61 | 1015.6 |
| 20260506162727 | 82 | 208 | 15.0 | 23.0 | 0.00 | 0.00 | 0.00 | 62 | 1015.6 |
| 20260506162230 | 81 | 213 | 18.0 | 31.0 | 0.00 | 0.00 | 0.00 | 61 | 1015.6 |
| 20260506161729 | 81 | 207 | 13.0 | 23.0 | 0.00 | 0.00 | 0.00 | 63 | 1015.6 |
| 20260506161227 | 81 | 229 | 15.0 | 22.0 | 0.00 | 0.00 | 0.00 | 63 | 1015.6 |
| 20260506160727 | 81 | 218 | 11.0 | 20.0 | 0.00 | 0.00 | 0.00 | 65 | 1015.6 |
| 20260506160231 | 80 | 217 | 9.0 | 18.0 | 0.00 | 0.00 | 0.00 | 65 | 1015.9 |
| 20260506155729 | 80 | 242 | 11.0 | 16.0 | 0.00 | 0.00 | 0.00 | 66 | 1015.9 |
| 20260506155228 | 79 | 226 | 11.0 | 20.0 | 0.00 | 0.00 | 0.00 | 68 | 1015.9 |
| 20260506154730 | 80 | 219 | 11.0 | 16.0 | 0.00 | 0.00 | 0.00 | 68 | 1015.9 |
| 20260506154228 | 80 | 219 | 11.0 | 14.0 | 0.00 | 0.00 | 0.00 | 68 | 1015.6 |
| 20260506153727 | 79 | 233 | 18.0 | 22.0 | 0.00 | 0.00 | 0.00 | 67 | 1015.9 |